N7SXG Weather Reports


time (UTC)temp
F
wind
direction
speed
knots
gust
knots
rain 1hr
in
rain 24hr
in
rain mn
in
humidity
%
barometer
mb
20260903010106 85 227 2.6 6.1 0.00 0.00 0.00 70 1017.6
20260903004602 86 225 2.6 6.1 0.00 0.00 0.00 69 1017.5
20260903003104 87 223 1.7 5.2 0.00 0.00 0.00 68 1017.6
20260903001601 87 217 0.9 6.1 0.00 0.00 0.00 66 1017.5
20260903000100 88 227 0.9 7.8 0.00 0.00 0.00 65 1017.4
20260902234601 88 220 2.6 8.7 0.00 0.00 0.00 64 1017.4
20260902233100 89 216 3.5 8.7 0.00 0.00 0.00 64 1017.4
20260902231603 89 157 3.5 10.4 0.00 0.00 0.00 62 1017.3
20260902230115 90 238 3.5 13.0 0.00 0.00 0.00 61 1017.4
20260902224601 90 207 6.1 13.9 0.00 0.00 0.00 59 1017.4
20260902223119 91 186 6.1 13.0 0.00 0.00 0.00 58 1017.5
20260902221602 93 242 4.3 11.3 0.00 0.00 0.00 57 1017.5
20260902220111 93 214 4.3 12.2 0.00 0.00 0.00 57 1017.6
20260902214614 94 242 3.5 10.4 0.00 0.00 0.00 56 1017.6
20260902213110 94 223 1.7 11.3 0.00 0.00 0.00 58 1017.6
20260902211606 94 226 5.2 13.0 0.00 0.00 0.00 54 1017.6
20260902210103 94 184 6.1 10.4 0.00 0.00 0.00 55 1017.8
20260902204605 94 218 2.6 13.0 0.00 0.00 0.00 57 1017.9
20260902203104 94 209 5.2 13.9 0.00 0.00 0.00 55 1018.0
20260902201604 95 225 6.1 10.4 0.00 0.00 0.00 54 1018.2
20260902200105 95 166 5.2 13.0 0.00 0.00 0.00 54 1018.4
20260902194615 95 215 3.5 12.2 0.00 0.00 0.00 53 1018.5
20260902193124 95 227 5.2 10.4 0.00 0.00 0.00 52 1018.8
20260902191605 96 193 2.6 9.6 0.00 0.00 0.00 53 1018.7
20260902190108 97 244 2.6 10.4 0.00 0.00 0.00 51 1018.9
20260902184623 96 261 2.6 14.8 0.00 0.00 0.00 52 1019.0
20260902183121 95 165 3.5 10.4 0.00 0.00 0.00 53 1019.1
20260902181604 96 216 5.2 14.8 0.00 0.00 0.00 51 1019.4
20260902180106 97 197 2.6 11.3 0.00 0.00 0.00 52 1019.3
20260902174608 96 248 4.3 10.4 0.00 0.00 0.00 54 1019.4
20260902173109 95 142 3.5 7.8 0.00 0.00 0.00 55 1019.6
20260902171604 95 227 2.6 11.3 0.00 0.00 0.00 56 1019.9
20260902170107 95 211 4.3 9.6 0.00 0.00 0.00 55 1020.1
20260902164605 95 253 3.5 9.6 0.00 0.00 0.00 56 1020.0
20260902163108 95 226 4.3 10.4 0.00 0.00 0.00 56 1020.1
20260902161609 94 263 1.7 8.7 0.00 0.00 0.00 58 1020.0
20260902160104 93 249 2.6 6.1 0.00 0.00 0.00 59 1019.9
20260902154603 92 232 1.7 8.7 0.00 0.00 0.00 58 1019.9
20260902153108 92 321 2.6 7.0 0.00 0.00 0.00 60 1020.1
20260902151609 90 215 4.3 8.7 0.00 0.00 0.00 62 1020.1
20260902150104 89 257 2.6 7.8 0.00 0.00 0.00 66 1020.2
20260902144604 88 207 3.5 7.0 0.00 0.00 0.00 68 1020.0
20260902143111 86 194 0.9 7.8 0.00 0.00 0.00 71 1020.1
20260902141611 83 201 2.6 6.1 0.00 0.00 0.00 73 1020.1
20260902140104 81 0 0.9 6.1 0.00 0.00 0.00 77 1020.2
20260902134610 80 216 3.5 7.8 0.00 0.00 0.00 79 1020.0
20260902133111 79 240 2.6 7.8 0.00 0.00 0.00 80 1020.0
20260902131603 78 224 2.6 6.1 0.00 0.00 0.00 82 1020.1
20260902124613 76 162 2.6 6.1 0.00 0.00 0.00 84 1020.1
20260902123115 76 226 1.7 4.3 0.00 0.00 0.00 85 1019.9
20260902121608 75 219 1.7 6.1 0.00 0.00 0.00 85 1019.8
20260902120107 75 173 1.7 7.0 0.00 0.00 0.00 85 1019.7
20260902114607 75 155 1.7 5.2 0.00 0.00 0.00 85 1019.6
20260902113118 75 0 2.6 7.8 0.00 0.00 0.00 85 1019.3
20260902111601 75 0 1.7 4.3 0.00 0.00 0.00 85 1019.3
20260902110100 75 177 0.9 5.2 0.00 0.00 0.00 85 1019.2
20260902104603 75 171 0.9 5.2 0.00 0.00 0.00 85 1019.2
20260902103107 75 200 1.7 7.0 0.00 0.00 0.00 85 1019.1
20260902101601 75 174 0.9 6.1 0.00 0.00 0.00 86 1019.1
20260902100124 75 175 1.7 6.1 0.00 0.00 0.00 86 1019.1
20260902094600 74 212 1.7 7.0 0.00 0.00 0.00 86 1019.2
20260902093104 74 202 0.9 5.2 0.00 0.00 0.00 86 1019.1
20260902091610 74 209 0.0 2.6 0.00 0.00 0.00 84 1019.1
20260902090106 75 169 0.0 2.6 0.00 0.00 0.00 83 1019.0
20260902084604 75 0 0.0 3.5 0.00 0.00 0.00 83 1018.9
20260902083103 76 0 0.0 1.7 0.00 0.00 0.00 83 1018.8
20260902081601 76 0 0.0 5.2 0.00 0.00 0.00 83 1018.8
20260902080116 76 198 0.0 3.5 0.00 0.00 0.00 82 1018.7
20260902074623 76 179 0.0 1.7 0.00 0.00 0.00 81 1018.5
20260902073111 77 182 0.0 2.6 0.00 0.00 0.00 80 1018.5
20260902071628 77 203 0.0 3.5 0.00 0.00 0.00 80 1018.5
20260902070110 78 0 0.9 3.5 0.00 0.00 0.00 80 1018.6
20260902064614 78 0 0.9 4.3 0.00 0.00 0.00 79 1018.4
20260902063103 78 218 1.7 5.2 0.00 0.00 0.00 79 1018.7
20260902061616 78 0 0.9 4.3 0.00 0.00 0.00 78 1018.6
20260902060126 79 216 0.9 5.2 0.00 0.00 0.00 78 1018.7
20260902054624 79 246 0.0 3.5 0.00 0.00 0.00 77 1018.7
20260902053109 79 193 1.7 5.2 0.00 0.00 0.00 77 1018.6
20260902051606 80 181 0.9 4.3 0.00 0.00 0.00 76 1018.7
20260902050114 80 217 0.9 5.2 0.00 0.00 0.00 76 1018.6
20260902044627 80 260 0.0 3.5 0.00 0.00 0.00 76 1018.7
20260902043114 80 207 0.9 5.2 0.00 0.00 0.00 75 1018.8
20260902041605 81 0 0.9 4.3 0.00 0.00 0.00 75 1018.8
20260902040105 81 0 0.9 5.2 0.00 0.00 0.00 74 1018.8
20260902034605 81 0 0.9 5.2 0.00 0.00 0.00 74 1018.7
20260902033103 81 244 1.7 4.3 0.00 0.00 0.00 74 1018.7
20260902031608 82 178 0.9 5.2 0.00 0.00 0.00 74 1018.7
20260902030100 82 189 1.7 5.2 0.00 0.00 0.00 74 1018.8
20260902024604 83 194 0.9 4.3 0.00 0.00 0.00 73 1018.9
20260902023116 83 0 0.9 5.2 0.00 0.00 0.00 73 1018.9
20260902021605 83 226 0.0 4.3 0.00 0.00 0.00 73 1018.8
20260902014604 84 196 0.9 4.3 0.00 0.00 0.00 72 1018.6
20260902013102 84 212 1.7 5.2 0.00 0.00 0.00 71 1018.4
20260902011604 85 220 1.7 6.1 0.00 0.00 0.00 70 1018.3